Weather Roundup
Issued by NWS Corpus Christi, TX

Home | Current Version | Previous Version | Text Only | Print | Product List | Glossary On
Versions: 1 2 3 4 5 6 7 8 9 10 11 12 13 14 15 16 17 18 19 20 21 22 23 24 25 26 27 28 29 30 31 32 33 34 35 36 37 38 39 40 41 42 43 44 45 46 47 48 49 50
000
ASUS44 KCRP 180710
HRRCRP

SOUTH TEXAS REGIONAL WEATHER ROUNDUP
NATIONAL WEATHER SERVICE CORPUS CHRISTI TX
100 AM CST MON DEC 18 2017


TXZ229>244-180800-
...CORPUS CHRISTI AREA OBSERVATIONS...

CITY           SKY/WX    TMP DP  RH WIND       PRES   REMARKS
CORPUS CHRISTI CLOUDY    54  54 100 N9        30.09S FOG
NAS CORPUS CHR CLOUDY    57  55  93 NW13      30.09S FOG
ROCKPORT       CLOUDY    55  53  93 N8        30.10S
KINGSVILLE ARP CLOUDY    55  55 100 N3        30.10R FOG
KINGSVILLE NAS CLOUDY    54  54 100 N7        30.10R FOG
ALICE          CLOUDY    53  51  93 N6        30.09S
$$

...VICTORIA AREA OBSERVATIONS...

CITY           SKY/WX    TMP DP  RH WIND       PRES   REMARKS
PORT LAVACA    CLOUDY    55  53  93 N7        30.12S
VICTORIA       CLOUDY    55  52  89 N6        30.12S
BEEVILLE       CLOUDY    52  52  99 NE5       30.09F FOG
PLEASANTON     CLOUDY    50  50 100 CALM      30.13S FOG
SAN ANTONIO    DRZL/FOG  49  49 100 CALM      30.12S VSB 1
$$

...LAREDO AREA OBSERVATIONS...

CITY           SKY/WX    TMP DP  RH WIND       PRES   REMARKS
LAREDO         CLOUDY    52  51  97 MISG      30.11S FOG
COTULLA        CLOUDY    51  50  96 CALM      30.11S FOG
DEL RIO        CLOUDY    48  47  96 SE10      30.08F FOG
MCALLEN        CLOUDY    58  53  84 N6        30.09F
HEBBRONVILLE   CLOUDY    51  50  97 CALM      30.10R FOG
$$

...OTHER TEXAS OBSERVATIONS...

CITY           SKY/WX    TMP DP  RH WIND       PRES   REMARKS
BROWNSVILLE    CLOUDY    63  59  87 N3        30.07S
HOUSTON        CLOUDY    56  55  97 NE5       30.12F
COL. STATION   CLOUDY    51  51 100 CALM      30.14R FOG
AUSTIN         CLOUDY    50  49  96 S6        30.12F FOG
WACO           FOG       48  48 100 SE3       30.13S VSB 1/2
FORT WORTH     CLOUDY    50  47  89 SE8       30.12R FOG
WICHITA FALLS  FOG       34  33  96 CALM      30.11S VSB 1/4
LUBBOCK        PTCLDY    36  27  69 SE8       30.07F
EL PASO        CLOUDY    45  44  97 N10       30.04F
$$

...MARINE OBSERVATIONS...

STATION/POSITION TIME  SKY/WX   TEMP    WIND        PRES    VSBY  WAVE   SWELL
                                AIR SEA DIR/SP/G                  HT/PER HT/PER
                 (UTC)          (F)     (DEG/KT/KT) (MB)    (MI)  (FT/S) (FT/S)
PORT ARANSAS     NOT AVBL
BUOY 90 E PORT A 0550            72 71   80/ 10/ 12 1018.6          4/ 7   3/ 7
BUOY 200 E PT IS 0550            76 76  140/ 12/ 14 1018.5          4/ 7   3/ 7
BUOY 15 E GALVES 0550            62 62   60/  2/  2 1019.8          3/ 7   2/ 7
$$



USA.gov is the U.S. government's official web portal to all federal, state and local government web resources and services.